Home   Weather   Santa Rosa   Past weeks

Flag for USA Past Weather in Santa Rosa, California, USA — Yesterday and Last 2 Weeks

Now
53 °F

Low clouds.


Feels Like: 50 °F
Forecast: 53 / 73 °F
Wind: 9 mph from South

Location: Santa Rosa Sonoma County Airport

Current Time: Sep 28, 2016 at 10:02:57 PM

Latest Report: Sep 28, 2016 at 8:53 PM


Visibility: 9 mi

Pressure: 29.89 "Hg

Humidity: 96%

Dew Point: 52 °F

Location of Santa RosaLocation

Past Weather in Santa Rosa — Graph

°F

Santa Rosa Temperature Yesterday

Maximum temperature yesterday: 93 °F (at 2:53 PM)
Minimum temperature yesterday: 52 °F (at 6:53 AM)
Average temperature yesterday: 67 °F

High & Low Weather Summary for the Past Weeks

 TemperatureHumidityPressure
High100 °F (Sep 26, 2:53 PM)100% (Sep 15, 3:53 AM)30.12 "Hg (Sep 15, 3:53 AM)
Low46 °F (Sep 21, 5:53 AM)10% (Sep 26, 2:53 PM)29.76 "Hg (Sep 27, 5:53 PM)
Average66 °F61%29.94 "Hg
* Reported Sep 13 8:53 PM — Sep 28 8:53 PM, Santa Rosa, Weather by CustomWeather, © 2016

Note: Actual official high and low records may vary slightly from our data, if they occured in-between our weather recording intervals... More about our weather records

Advertising

Santa Rosa Weather History for the Previous 24 Hours

Scroll right to see more
 ConditionsComfort  
Time TempWeatherWind HumidityBarometerVisibility
8:53 PM
Wed, Sep 28
53 °FLow clouds.9 mph96%29.89 "Hg9 mi
7:53 PM54 °FPassing clouds.9 mph93%29.87 "Hg9 mi
6:53 PM56 °FSunny.10 mph87%29.85 "Hg10 mi
5:53 PM65 °FPassing clouds.14 mph63%29.83 "Hg10 mi
4:53 PM73 °FSunny.10 mph46%29.82 "Hg10 mi
3:53 PM77 °FSunny.12 mph42%29.82 "Hg10 mi
2:53 PM79 °FSunny.13 mph39%29.83 "Hg10 mi
1:53 PM80 °FSunny.9 mph41%29.83 "Hg10 mi
12:53 PM78 °FSunny.7 mph42%29.85 "Hg10 mi
11:53 AM72 °FSunny.7 mph48%29.86 "Hg10 mi
10:53 AM66 °FSunny.3 mph59%29.88 "Hg10 mi
9:53 AM60 °FSunny.No wind69%29.88 "Hg10 mi
8:53 AM53 °FPassing clouds.No wind86%29.88 "Hg10 mi
7:53 AM47 °FLight fog.3 mph97%29.87 "Hg10 mi
6:53 AM46 °FClear.No wind96%29.85 "Hg10 mi
5:53 AM47 °FPassing clouds.No wind97%29.83 "Hg10 mi
4:53 AM48 °FPassing clouds.No wind96%29.83 "Hg10 mi
3:53 AM48 °FClear.No wind93%29.83 "Hg10 mi
2:53 AM49 °FClear.No wind97%29.83 "Hg10 mi
1:53 AM50 °FClear.No wind93%29.84 "Hg10 mi
12:53 AM51 °FClear.3 mph92%29.83 "Hg10 mi
11:53 PM
Tue, Sep 27
52 °FClear.3 mph89%29.83 "Hg10 mi
10:53 PM53 °FClear.3 mph86%29.82 "Hg10 mi
Weather by CustomWeather, © 2016

See weather overviewHow to use our weather pages